Harlan, IA

3:21 PM CDT on July 21, 2017 (GMT -0500)
Harlan Municipal

Weather History for KHNR - October, 2011

Change the Weather History Date:

Thursday, October 20, 2011

  Actual Average Record
Temperature  
Mean Temperature 42 °F -  
Max Temperature 53 °F 61 °F 82 °F (1953)
Min Temperature 30 °F 37 °F 15 °F (1960)
Degree Days  
Heating Degree Days 24    
Moisture  
Dew Point 26 °F    
Average Humidity 59    
Maximum Humidity 86    
Minimum Humidity 28    
Precipitation  
Precipitation 0.00 in - - ()
Sea Level Pressure  
Sea Level Pressure 30.06 in    
Wind  
Wind Speed 7 mph (NNW)    
Max Wind Speed 18 mph    
Max Gust Speed 22 mph    
Visibility 10 miles    
Events      
Averages and records for this station are not official NWS values.
T = Trace of Precipitation, MM = Missing Value Source: NWS Daily Summary

Daily Weather History Graph

Daily Weather History Graph

Search for Another Location

Airport or City:

Trip Planner

Search our weather history database for the weather conditions in past years. The results will help you decide how hot, cold, wet, or windy it might be!

Date:

Astronomy

Oct. 20, 2011 Rise Set
Actual Time 7:38 AM CDT 6:32 PM CDT
Civil Twilight 7:10 AM CDT 7:01 PM CDT
Nautical Twilight 6:38 AM CDT 7:33 PM CDT
Astronomical Twilight 6:06 AM CDT 8:05 PM CDT
Moon 12:19 AM CDT (10/20) 2:47 PM CDT (10/20)
Length of Visible Light 11h 50m
Length of Day
10h 54m
Last Quarter, 44% of the Moon is Illuminated
Oct 20
Last Quarter
Oct 26
New
Nov 2
First Quarter
Nov 10
Full
Nov 18
Last Quarter

Hourly Weather History & Observations

Time (CDT) Temp. Windchill Dew Point Humidity Pressure Visibility Wind Dir Wind Speed Gust Speed Precip Events Conditions
12:15 AM 42.8 °F 37.5 °F 26.6 °F 53% 30.07 in 10.0 mi North 9.2 mph - N/A   Overcast
12:35 AM 42.8 °F 38.0 °F 26.6 °F 53% 30.07 in 10.0 mi North 8.1 mph - N/A   Overcast
12:55 AM 41.0 °F 35.8 °F 26.6 °F 57% 30.06 in 10.0 mi North 8.1 mph - N/A   Mostly Cloudy
1:35 AM 37.4 °F 32.8 °F 26.6 °F 65% 30.06 in 10.0 mi NNW 5.8 mph - N/A   Scattered Clouds
1:55 AM 35.6 °F 30.7 °F 26.6 °F 70% 30.07 in 10.0 mi NW 5.8 mph - N/A   Clear
2:15 AM 33.8 °F 28.6 °F 26.6 °F 75% 30.07 in 10.0 mi NW 5.8 mph - N/A   Clear
2:35 AM 33.8 °F 27.7 °F 26.6 °F 75% 30.06 in 10.0 mi NW 6.9 mph - N/A   Clear
2:55 AM 32.0 °F 28.7 °F 26.6 °F 80% 30.06 in 10.0 mi NW 3.5 mph - N/A   Clear
3:15 AM 33.8 °F 28.6 °F 26.6 °F 75% 30.06 in 10.0 mi NNW 5.8 mph - N/A   Clear
3:35 AM 33.8 °F 28.6 °F 28.4 °F 81% 30.06 in 10.0 mi NNW 5.8 mph - N/A   Clear
3:55 AM 33.8 °F 30.8 °F 26.6 °F 75% 30.06 in 10.0 mi North 3.5 mph - N/A   Clear
4:15 AM 32.0 °F - 26.6 °F 80% 30.05 in 10.0 mi Calm Calm - N/A   Clear
4:35 AM 33.8 °F - 26.6 °F 75% 30.06 in 10.0 mi Calm Calm - N/A   Clear
5:15 AM 30.2 °F - 26.6 °F 86% 30.06 in 10.0 mi Calm Calm - N/A   Clear
5:35 AM 30.2 °F - 26.6 °F 86% 30.06 in 10.0 mi Calm Calm - N/A   Clear
6:15 AM 32.0 °F - 26.6 °F 80% 30.06 in 10.0 mi Calm Calm - N/A   Clear
6:35 AM 30.2 °F 25.4 °F 26.6 °F 86% 30.06 in 10.0 mi North 4.6 mph - N/A   Clear
6:55 AM 30.2 °F 25.4 °F 26.6 °F 86% 30.06 in 10.0 mi North 4.6 mph - N/A   Clear
7:15 AM 32.0 °F 27.5 °F 26.6 °F 80% 30.06 in 10.0 mi North 4.6 mph - N/A   Clear
7:35 AM 30.2 °F - 26.6 °F 86% 30.06 in 10.0 mi Calm Calm - N/A   Clear
7:55 AM 30.2 °F - 26.6 °F 86% 30.06 in 10.0 mi Calm Calm - N/A   Clear
8:15 AM 32.0 °F - 26.6 °F 80% 30.07 in 10.0 mi Calm Calm - N/A   Clear
8:35 AM 33.8 °F 30.8 °F 28.4 °F 81% 30.08 in 10.0 mi North 3.5 mph - N/A   Clear
8:55 AM 33.8 °F 28.6 °F 28.4 °F 81% 30.08 in 10.0 mi North 5.8 mph - N/A   Clear
9:15 AM 37.4 °F 32.1 °F 30.2 °F 75% 30.08 in 10.0 mi North 6.9 mph - N/A   Clear
9:35 AM 39.2 °F 33.6 °F 30.2 °F 70% 30.08 in 10.0 mi NNW 8.1 mph - N/A   Clear
9:55 AM 41.0 °F 35.2 °F 30.2 °F 65% 30.09 in 10.0 mi NNW 9.2 mph - N/A   Clear
10:15 AM 42.8 °F 36.6 °F 30.2 °F 61% 30.09 in 10.0 mi North 11.5 mph - N/A   Clear
10:35 AM 44.6 °F 38.4 °F 28.4 °F 53% 30.09 in 10.0 mi North 12.7 mph 17.3 mph N/A   Clear
10:55 AM 44.6 °F 38.1 °F 28.4 °F 53% 30.09 in 10.0 mi NNW 13.8 mph 18.4 mph N/A   Clear
11:15 AM 46.4 °F 41.5 °F 28.4 °F 50% 30.09 in 10.0 mi NNW 10.4 mph - N/A   Clear
11:35 AM 48.2 °F - 26.6 °F 43% 30.08 in 10.0 mi NNW 15.0 mph 21.9 mph N/A   Clear
11:55 AM 48.2 °F - 26.6 °F 43% 30.07 in 10.0 mi NW 18.4 mph 21.9 mph N/A   Clear
12:15 PM 50.0 °F - 24.8 °F 37% 30.07 in 10.0 mi North 12.7 mph - N/A   Clear
12:35 PM 50.0 °F - 23.0 °F 35% 30.07 in 10.0 mi NNW 15.0 mph 21.9 mph N/A   Clear
12:55 PM 51.8 °F - 21.2 °F 30% 30.07 in 10.0 mi NNW 15.0 mph 20.7 mph N/A   Clear
1:55 PM 51.8 °F - 23.0 °F 33% 30.05 in 10.0 mi NW 9.2 mph 18.4 mph N/A   Clear
2:15 PM 51.8 °F - 21.2 °F 30% 30.05 in 10.0 mi NW 11.5 mph 17.3 mph N/A   Clear
2:35 PM 51.8 °F - 21.2 °F 30% 30.04 in 10.0 mi NW 13.8 mph - N/A   Clear
2:55 PM 53.6 °F - 21.2 °F 28% 30.03 in 10.0 mi NW 11.5 mph - N/A   Clear
3:15 PM 53.6 °F - 21.2 °F 28% 30.03 in 10.0 mi NW 10.4 mph - N/A   Clear
3:35 PM 53.6 °F - 23.0 °F 30% 30.03 in 10.0 mi NNW 11.5 mph - N/A   Clear
3:55 PM 53.6 °F - 23.0 °F 30% 30.04 in 10.0 mi NW 10.4 mph - N/A   Clear
4:15 PM 53.6 °F - 21.2 °F 28% 30.04 in 10.0 mi NW 9.2 mph 17.3 mph N/A   Clear
4:35 PM 53.6 °F - 21.2 °F 28% 30.04 in 10.0 mi NNW 10.4 mph - N/A   Clear
4:55 PM 53.6 °F - 21.2 °F 28% 30.04 in 10.0 mi NNW 9.2 mph - N/A   Clear
5:15 PM 53.6 °F - 24.8 °F 33% 30.04 in 10.0 mi WNW 10.4 mph - N/A   Clear
5:35 PM 51.8 °F - 24.8 °F 35% 30.05 in 10.0 mi NW 9.2 mph - N/A   Clear
5:55 PM 51.8 °F - 24.8 °F 35% 30.05 in 10.0 mi WNW 6.9 mph - N/A   Clear
6:15 PM 48.2 °F - 26.6 °F 43% 30.05 in 10.0 mi WNW 6.9 mph - N/A   Clear
6:35 PM 42.8 °F 38.0 °F 26.6 °F 53% 30.06 in 10.0 mi WNW 8.1 mph - N/A   Clear
6:55 PM 39.2 °F 34.2 °F 26.6 °F 61% 30.06 in 10.0 mi WNW 6.9 mph - N/A   Clear
7:15 PM 39.2 °F 35.0 °F 26.6 °F 61% 30.06 in 10.0 mi WNW 5.8 mph - N/A   Clear
7:35 PM 39.2 °F 35.0 °F 26.6 °F 61% 30.07 in 10.0 mi NW 5.8 mph - N/A   Clear
7:55 PM 39.2 °F - 26.6 °F 61% 30.07 in 10.0 mi Calm Calm - N/A   Clear
8:15 PM 37.4 °F - 26.6 °F 65% 30.07 in 10.0 mi Calm Calm - N/A   Clear
8:35 PM 37.4 °F - 26.6 °F 65% 30.07 in 10.0 mi Calm Calm - N/A   Clear
8:55 PM 37.4 °F - 24.8 °F 60% 30.07 in 10.0 mi Calm Calm - N/A   Clear
9:35 PM 35.6 °F - 26.6 °F 70% 30.09 in 10.0 mi Calm Calm - N/A   Clear
9:55 PM 35.6 °F 32.8 °F 26.6 °F 70% 30.09 in 10.0 mi WNW 3.5 mph - N/A   Clear
10:15 PM 35.6 °F - 26.6 °F 70% 30.10 in 10.0 mi Calm Calm - N/A   Clear
10:35 PM 37.4 °F - 26.6 °F 65% 30.10 in 10.0 mi Calm Calm - N/A   Clear
10:55 PM 35.6 °F - 26.6 °F 70% 30.10 in 10.0 mi Calm Calm - N/A   Clear
11:15 PM 35.6 °F - 24.8 °F 65% 30.11 in 10.0 mi Calm Calm - N/A   Clear
11:35 PM 33.8 °F - 26.6 °F 75% 30.11 in 10.0 mi Calm Calm - N/A   Clear
11:55 PM 32.0 °F - 24.8 °F 75% 30.11 in 10.0 mi Calm Calm - N/A   Clear